Showing default

ORBCOMM FM 108, 41187

Orbit data source: Space-Track

ORBCOMM FM 108, 41187 is a payload satellite owned by Orbcomm (US) in LEO that was launched on Tue, 22 Dec 2015 UTC via an FALCON 9 launch vehicle from the Air Force Eastern Test Range (AFETR). Payload-class satellites include a variety of spacecraft equipped with specific instruments for various scientific and technological missions. These include communications satellites like Starlink; space stations such as the ISS; scientific satellites like the Hubble; Earth observation satellites from companies like Planet Labs, Umbra, and HawkEye 360; GPS; miniature CubeSats for education and research; and military/defense satellites.

Loading next visibility...
Identifier
41187, 2015-081J
Orbit
LEO
Country
Flag of USUS / ORB
Related business
Manufacturer
SNC Louisville
Mission
Operational Commercial Communications
Bus & Motor
SN-100A, Unknown motor
Mass
172 kg wet, 158 kg dry
Launch date (UTC)
2015-12-22 (10 years ago)
Launch vehicle
FALCON 9
Launch site
Air Force Eastern Test Range (AFETR)
Object type
Payload
Rocket body
Debris
Shape & HBR
Box + 1 Pan + 1 Ant, 6.5 m
Radar Cross Section
2.222 m², Medium (>0.1 m² and < 1m²)

Expand to show TLE details & history
Last TLE update: 19 hours ago

TLE from 19 hours ago
0 ORBCOMM FM 108
1 41187U 15081J   25258.40738048  .00000792  00000-0  20615-3 0  9997
2 41187  47.0058  40.8584 0002031 353.9870   6.0991 14.58302194519969
Epoch: 2025-09-15T09:46Z
TLE epoch observation values (Epoch: 2025-09-15T09:46:37.673Z)
Latitude
-0.00001°
Longitude
-100.41106°
Altitude
697.448 km
Speed
7.51 km/s
True Right ascension
02h 43m 26s
True Declination
0° 00' 00"
Sunlit
Object was in full shadow at epoch
Visualization orbit readout
Latitude
Unknown
Longitude
Unknown
Altitude
Unknown
Speed
Unknown
Apparent Right ascension
Unknown
Apparent Declination
Unknown
Sunlit
N/A
Visualization observer readout
Local Sidereal Time
21:52:33
Azimuth
Unknown
Elevation
Unknown
Doppler factor
Unknown
Orbital elements
Apogee altitude
701.333 km
Perigee altitude
698.458 km
Semi-major axis
7,078.032 km
Eccentricity
0.0002
Inclination
47.0058°
RAAN
40.8584°
Arg. of periapsis
353.987°
True anomaly
6.10157°
Mean anomaly
6.0991°
Eccentric anomaly
6.10034°
Mean motion
3.64481 °/min
Orbital period
98.77 mins
BSTAR
0.00020615
Loading maneuver chart data...
Computing Atmospheric mass density...
Loading historical data...
Loading historical data...
Loading historical data...
Loading historical data...
Loading historical data...
Loading historical data...
Loading historical data...

Documentation

Showing up to 5 results
|